Flag for Germany Weather past 2 weeks in Apolda, Thuringia, Germany

34 °F

Mostly cloudy.

Feels Like: 23 °F
Forecast: 34 / 42 °F
Wind: 16 mph from Southwest

Location: Erfurt-Bindersleben

Current Time: Nov 25, 2015 at 2:16:45 AM

Latest Report: Nov 25, 2015 at 1:20 AM

Visibility: N/A

Pressure: 29.77 "Hg

Humidity: 81%

Dew point: 28 °F

Location of ApoldaLocation

Historic Weather in Apolda — Graph


Apolda temperature yesterday

Maximum temperature yesterday: 36 °F (at 11:50 AM)
Minimum temperature yesterday: 28 °F (at 12:50 AM)
Average temperature yesterday: 33 °F

Past Weeks' High & Low Weather Summary

High61 °F (Nov 10, 10:50 AM)100% (Nov 21, 10:20 PM)30.30 "Hg (Nov 21, 10:20 PM)
Low28 °F (Nov 22, 6:50 AM)58% (Nov 18, 11:50 AM)29.39 "Hg (Nov 21, 4:50 AM)
Average46 °F80%29.94 "Hg
* Reported Nov 10 12:20 AM — Nov 25 12:20 AM, Apolda, Weather by CustomWeather, © 2015

Note: Actual official high and low records may vary slightly from our data, if they occured in-between our weather recording intervals... More about our weather records


Apolda weather history for previous 24 hours

Time TempWeatherWind HumidityBarometerVisibility
12:20 AM
Wed, Nov 25
34 °FOvercast.18 mph81%29.80 "HgN/A
11:20 PM
Tue, Nov 24
34 °FLight snow. Overcast.17 mph81%29.83 "HgN/A
10:50 PM34 °FLight snow. Mostly cloudy.20 mph81%29.83 "HgN/A
10:20 PM34 °FMostly cloudy.21 mph81%29.83 "HgN/A
9:50 PM34 °FMostly cloudy.20 mph81%29.86 "HgN/A
9:20 PM34 °FOvercast.16 mph81%29.89 "HgN/A
8:50 PM34 °FMostly cloudy.14 mph75%29.89 "HgN/A
8:20 PM34 °FPassing clouds.15 mph75%29.92 "HgN/A
7:50 PM34 °FClear.15 mph75%29.92 "Hg10 mi
7:20 PM36 °FClear.15 mph65%29.95 "Hg10 mi
6:50 PM34 °FClear.16 mph75%29.95 "Hg10 mi
6:20 PM34 °FClear.15 mph75%29.95 "Hg10 mi
5:50 PM34 °FClear.13 mph75%29.95 "Hg10 mi
5:20 PM34 °FClear.14 mph75%29.98 "Hg10 mi
4:50 PM36 °FClear.13 mph70%29.98 "Hg10 mi
4:20 PM34 °FPassing clouds.14 mph75%29.98 "HgN/A
3:50 PM36 °FPartly sunny.15 mph70%30.01 "HgN/A
3:20 PM36 °FPartly sunny.16 mph70%30.01 "HgN/A
2:50 PM36 °FBroken clouds.16 mph70%30.04 "HgN/A
2:20 PM36 °FBroken clouds.14 mph70%30.04 "HgN/A
1:50 PM36 °FBroken clouds.16 mph70%30.07 "HgN/A
1:20 PM36 °FPartly sunny.16 mph70%30.07 "HgN/A
12:50 PM36 °FPartly sunny.13 mph75%30.09 "HgN/A
12:20 PM36 °FPartly sunny.16 mph75%30.09 "HgN/A
11:50 AM36 °FBroken clouds.14 mph75%30.12 "HgN/A
11:20 AM34 °FBroken clouds.10 mph81%30.12 "HgN/A
10:50 AM34 °FBroken clouds.13 mph81%30.15 "HgN/A
10:20 AM34 °FPartly sunny.14 mph81%30.15 "HgN/A
9:50 AM34 °FPartly sunny.15 mph81%30.15 "HgN/A
9:20 AM32 °FSunny.12 mph87%30.15 "Hg10 mi
8:50 AM32 °FSunny.9 mph87%30.18 "Hg10 mi
7:50 AM30 °FSunny.9 mph86%30.18 "Hg10 mi
7:20 AM30 °FClear.10 mph86%30.18 "Hg10 mi
6:50 AM30 °FClear.12 mph86%30.18 "Hg10 mi
6:20 AM30 °FClear.13 mph86%30.18 "Hg10 mi
5:50 AM30 °FClear.10 mph86%30.18 "Hg10 mi
5:20 AM30 °FClear.10 mph86%30.18 "Hg10 mi
4:50 AM30 °FClear.10 mph86%30.18 "Hg10 mi
3:50 AM28 °FClear.9 mph86%30.21 "Hg10 mi
3:20 AM28 °FClear.10 mph86%30.21 "Hg10 mi
2:50 AM28 °FClear.9 mph86%30.21 "Hg10 mi
2:20 AM28 °FClear.8 mph86%30.21 "Hg10 mi
Weather by CustomWeather, © 2015

See weather overviewHow to use our weather pages